Tracking 18945 objects as of 20-Jan-2018
HD Live streaming from Space Station
objects crossing your sky now

METEOR 1-11 DEB

Track METEOR 1-11 DEB now!
10-day predictions


NORAD ID: 36305
Int'l Code: 1972-022D
Perigee: 753.8 km
Apogee: 780.5 km
Inclination: 81.2 °
Period: 100.0 minutes
Semi major axis: 7138 km
RCS: 0.003 m2 (small)
Launch date: March 30, 1972
Source: Commonwealth of Independent States (former USSR) (CIS)
Launch site: PLESETSK MISSILE AND SPACE COMPLEX (PKMTR)

Note: This is SATELLITE DEBRIS
aabbcc
Your satellite tracking list
Your tracking list is empty




NASA's NSSDC Master Catalog

Two Line Element Set (TLE):
1 36305U 72022D   17365.18402408 +.00002922 +00000-0 +93074-3 0  9990
2 36305 081.1999 313.4545 0018643 086.2292 270.3956 14.39540152090298
Source of the keplerian elements: AFSPC